Regional Weather Roundup
Issued by NWS

Home | Current Version | Previous Version | Text Only | Print | Product List | Glossary On
Versions: 1 2 3 4 5 6 7 8 9 10 11 12 13 14 15 16 17 18 19 20 21 22 23 24 25 26 27 28 29 30 31 32 33 34 35 36 37 38 39 40 41 42 43 44 45 46 47 48 49 50
000
ASUS44 KLUB 190601
RWRTX
WEST TEXAS WEATHER ROUNDUP
NATIONAL WEATHER SERVICE LUBBOCK TX
100 AM CDT FRI SEP 19 2014

NOTE: "FAIR" INDICATES FEW OR NO CLOUDS BELOW 12,000 FEET WITH NO
SIGNIFICANT WEATHER AND/OR OBSTRUCTIONS TO VISIBILITY.

TXZ004-006>008-010-012-014-016-OKZ002-190700-
TEXAS PANHANDLE/OKLAHOMA PANHANDLE

CITY           SKY/WX    TMP DP  RH WIND       PRES   REMARKS
AMARILLO       CLOUDY    64  61  90 S7        30.06S
BORGER         MOCLDY    65  59  81 SW6       30.04S
CANADIAN       CLEAR     63  59  88 SW3       30.01S
DALHART        CLOUDY    65  61  87 S8        30.08S
DUMAS          CLEAR     59  57  92 S6        30.06S
GUYMON         CLEAR     64  60  87 S7        30.02R
HEREFORD       CLOUDY    65  64  97 E3        30.07S
PERRYTON       CLEAR     60  54  81 S7        30.03S
$$

TXZ026-029-035-045-048-190700-
SOUTHERN PANHANDLE/SOUTH PLAINS/ROLLING PLAINS

CITY           SKY/WX    TMP DP  RH WIND       PRES   REMARKS
CHILDRESS      MOCLDY    71  68  90 CALM      29.99F
SEMINOLE       CLOUDY    68  67  97 SE8       30.02S
LUBBOCK        CLOUDY    67  64  90 SE8       30.02S
SNYDER         CLOUDY    69  67  93 S5        29.99R
$$

TXZ052-054-060>062-072-078-127-140-154-169-190700-
PERMIAN BASIN/CONCHO VALLEY/BIG COUNTRY/EDWARDS PLATEAU

CITY           SKY/WX    TMP DP  RH WIND       PRES   REMARKS
ABILENE        CLOUDY    72  69  90 SE3       29.97R
BIG SPRING     CLOUDY    74  70  88 E6        30.00S
BRADY          CLOUDY    70  70 100 SW5       29.94S
JUNCTION       CLOUDY    73  67  81 CALM      29.94F
MIDLAND        CLOUDY    71  69  93 E12       29.98F
ODESSA         CLOUDY    71  68  90 SE9       29.99S
SAN ANGELO     LGT RAIN  72  68  87 S7        29.96S
SONORA         LGT RAIN  72  68  88 CALM      30.00F
SWEETWATER     CLOUDY    71  69  94 E6        30.00F
WINK           CLOUDY    73  69  87 SE15      29.94F
$$

TXZ055-058-074-075-080-082-190700-
FAR WEST/SOUTHWEST MOUNTAINS/TRANS PECOS

CITY           SKY/WX    TMP DP  RH WIND       PRES   REMARKS
ALPINE         MOCLDY    69  65  86 CALM      30.07R
DRYDEN           N/A     79  72  79 NE9       29.90S
EL PASO        CLOUDY    68  65  90 CALM      29.98S
FORT STOCKTON  MOCLDY    71  68  90 E10       29.95F
GUADALUPE PASS FOG       64  64 100 E12       30.08S VSB 1/4
MARFA          MOCLDY    66  64  94 SE5       30.05S
PRESIDIO       FAIR      77  69  76 NE9       29.90S
$$

TXZ014-016-019-021>030-083-190700
TEXAS TECH WEST TEXAS MESONET/TEXAS PANHANDLE/NORTHERN SOUTH PLAINS

CITY           SKY/WX    TMP DP  RH WIND       PRES   REMARKS
ABERNATHY 5ENE   N/A     65  63  93 SE3       30.05S
AMARILLO 9NNE    N/A     64  61  93 S2        30.05S
AMARILLO 7SSE    N/A     63  62  96 S3        30.07S
AMHERST 1NE      N/A     65  64  97 SE3       30.05S
BOOTLEG 11WNW    N/A     63  62  96 SE10      30.11R
CANADIAN 6E      N/A     66  60  82 S1        30.00S
CAPROCK CYN SP   N/A     67  64  93 S3        30.02F
CHILDRESS 2NNE   N/A     70  67  92 SW3       29.98F
CLARENDON 2WSW   N/A     68  61  78 S2        30.03S
CLAUDE 12SW      N/A     64  62  93 E2        30.06S
DIMMITT 2NE      N/A     63  62  95 SE5       30.06S
FLOYDADA 2NNE    N/A     65  64  97 E3        30.04S
FRIONA 2NE       N/A     64  62  94 SE9       30.08S
GOODLETT 3W      N/A     71  68  90 S1        29.96F
HART 3N          N/A     64  63  96 E3        30.06S
HEREFORD 2NW     N/A     63  61  92 S3        30.06F
MCLEAN 1E        N/A     65  61  87 S3        30.02F
MEMPHIS 1NE      N/A     71  65  81 CALM      30.00S
MULESHOE 2SSW    N/A     65  63  93 SE6       30.05S
OLTON 6S         N/A     65  63  93 E5        30.05S
PALO DURO SP     N/A     65  62  92 E1        30.06F
PAMPA 2E         N/A     62  58  88 S6        30.04S
PLAINVIEW 1S     N/A     65  64  96 SE2       30.04S
SILVERTON 7ESE   N/A     64  62  94 SE3       30.04S
TULIA 2ENE       N/A     64  63  97 SE3       30.06R
TURKEY 2WSW      N/A     67  65  92 S3        30.01S
UMBARGER 3NNE    N/A     62  61  96 SE6       30.07S
$$

TXZ033>036-039>041-045>048-190700
TEXAS TECH WEST TEXAS MESONET/SOUTH PLAINS

CITY           SKY/WX    TMP DP  RH WIND       PRES   REMARKS
AIKEN 3WSW       N/A     65  65  99 E2        30.05S
ANTON 6SSW       N/A     66  64  93 E5        30.03F
BROWNFIELD 2S    N/A     66  65  95 E5        30.02F
DENVR CTY 7WNW   N/A     65  63  92 E9        30.02S
GAIL 2ESE        N/A     69  66  90 SE6       29.98F
LAMESA 2SE     LGT RAIN  68  67  96 SE7       30.00S
LEVELLAND 4S     N/A     66  64  91 E5        30.03F
LUBBOCK 3WNW     N/A     67  64  88 SE7       30.02F
MORTON 1ENE      N/A     65  64  96 E6        30.05S
ODONNELL 1N      N/A     67  65  92 E7        30.00F
PLAINS 3N      LGT RAIN  65  64  95 E7        30.04S
RALLS 1SE        N/A     65  64  96 E3        30.03S
REESE CENTER     N/A     66  64  91 SE8       30.03S
SEAGRAVES 1SW    N/A     67  66  96 E6        30.01F
SEMINOLE 2NNE    N/A     67  66  94 E10       30.01S
SLATON 2NE       N/A     66  65  95 SE3       30.02S
SNYDER 3E        N/A     68  67  94 E8        29.97S
SUNDOWN 8SW    LGT RAIN  65  64  95 E6        30.03F
TAHOKA 3NNE      N/A     67  65  94 SE5       30.01S
WOLFFORTH 6SSW   N/A     67  66  97 SE7       30.02F
$$

TXZ031-032-036>038-042>044-190700-
TEXAS TECH WEST TEXAS MESONET/ROLLING PLAINS

CITY           SKY/WX    TMP DP  RH WIND       PRES   REMARKS
ASPERMONT 3NE    N/A     69  68  95 CALM      29.96F
FLUVANNA 3WNW  LGT RAIN  69  65  89 SE8       29.99S
GRAHAM 5SSW      N/A     67  64  90 SE7       29.99F
GUTHRIE 10WSW    N/A     67  66  94 NE6       29.98S
HASKELL 1NW      N/A     70  67  93 CALM      29.95S
JAYTON 1SSE      N/A     68  66  94 N2        29.98S
KNOX CITY 3NW    N/A     71  67  87 NW1       29.96S
LK A HENRY 1NW   N/A     68  67  96 NE5       29.99R
NORTHFIELD 1S    N/A     68  67  96 SW2       29.99F
ODELL 4ENE       N/A     69  68  95 NE1       29.96F
PADUCAH 10SW     N/A     68  67  95 W1        29.98F
POST 1NE         N/A     67  69 100 E3        29.99S
RRING SPRGS 3N   N/A     66  65  97 SE1       30.01F
SEYMOUR 3NW      N/A     71  68  90 N5        29.95S
SPUR 1W          N/A     67  65  91 E3        29.99S
WEINERT 2NNE     N/A     70  69  96 NE1       29.95F
WHITE RVR 6NE    N/A     66  64  94 NE3       30.00F
$$

TXZ052-054-060>062-072-078-127-140-154-169-190700-
TEXAS TECH WEST TEXAS MESONET/PERMIAN BASIN/
CONCHO VALLEY/BIG COUNTRY/EDWARDS PLATEAU

CITY           SKY/WX    TMP DP  RH WIND       PRES   REMARKS
COYANOSA 2N      N/A     72  69  92 E12       29.94S
JUNCTION 1SSW    N/A     73  67  83 CALM      29.96S
MERTZON 3NNE     N/A     70  68  93 SE2       29.97S
SAN ANGELO 7NW   N/A     71  66  85 E5        29.96F
STRLNG CT 4WSW   N/A     69  67  93 E9        29.98F
ST LAWRNCE 5SW   N/A     69  68  97 E13       29.97R
SWEETWATR 11SW   N/A     69  68  94 SE12      29.98F
WALL 1E          N/A     69  66  89 NE2       29.97S
$$

TXZ055-058-074-075-080-082-190700-
TEXAS TECH WEST TEXAS MESONET/FAR WEST/SOUTHWEST MOUNTAINS/TRANS PECOS

CITY           SKY/WX    TMP DP  RH WIND       PRES   REMARKS
PRSMN GAP BBNP   N/A     74  72  92 NE7       29.92S
$$


USA.gov is the U.S. government's official web portal to all federal, state and local government web resources and services.